Location: Juzet
(42.9779°N, 0.7597°E)
Time: 19:20:43
(UTC+00:00)

Cosmos 1842 - Pass Details

Date: 14 July 2020
Orbit: 522 x 536 km, 82.5° (Epoch: 11 August)

Event Time Altitude Azimuth Distance (km) Brightness Sun altitude
Rises 03:53:51 0° 345° (NNW) 2,695 7.2 -6.4°
Reaches altitude 10° 03:56:03 10° 340° (NNW) 1,800 6.2 -6.1°
Maximum altitude 03:59:51 46° 267° (W) 725 3.6 -5.6°
Drops below altitude 10° 04:03:37 10° 193° (SSW) 1,787 5.5 -5.0°
Sets 04:05:49 0° 187° (S) 2,673 6.4 -4.7°
